contact:dominique.lefevre@mio.osupytheas.fr, maurice.libes@osupytheas.fr, didier.mallarino@osupytheas.fr
Project:EMSO http://www.emso-fr.org/EMSO-France
Depth: 2436.0 m
Title:EMSO Ligure Ouest : Data MII capteur AQUADOPP
Date,Latitude,Longitude,X_East,Y_North,Z_Up,Amplitude_X,Amplitude_Y,Amplitude_Z,Batterie,SoundSpeed,Heading,Pitch,Roll,Pressure,TIS,Speed,Direction
, degrees North, degrees East, m.s-1, m.s-1,m.s-1, 1, 1, 1, Volt, m.s-1, degree, degree, degree, dbar, degree_C, m.s-1, degree
2021-10-06T00:04:03,42.805,6.029,0.046,-0.061,-0.04,103.0,102.0,101.0,13.4,1505.2,330.1,-0.8,1.8,2470.581,13.28,0.076,143.0
2021-10-06T00:07:03,42.805,6.029,0.052,-0.031,0.019,103.0,102.0,101.0,13.4,1505.2,331.3,-0.8,1.8,2470.56,13.28,0.06,120.8
2021-10-06T00:10:03,42.805,6.029,0.037,-0.033,-0.031,103.0,101.0,101.0,13.3,1505.2,326.4,-0.7,1.8,2470.578,13.28,0.049,131.7
2021-10-06T00:13:03,42.805,6.029,0.048,-0.04,-0.003,102.0,103.0,101.0,13.4,1505.2,326.7,-0.7,1.8,2470.541,13.28,0.062,129.8
2021-10-06T00:16:03,42.805,6.029,0.033,-0.031,-0.016,105.0,102.0,100.0,13.4,1505.2,325.2,-0.7,1.8,2470.546,13.28,0.045,133.2
2021-10-06T00:19:03,42.805,6.029,0.047,-0.039,-0.01,102.0,103.0,102.0,13.4,1505.2,327.1,-0.7,1.9,2470.535,13.28,0.061,129.7
2021-10-06T00:22:03,42.805,6.029,0.053,-0.022,-0.016,103.0,103.0,100.0,13.4,1505.2,329.5,-0.8,1.8,2470.519,13.28,0.057,112.5
2021-10-06T00:25:03,42.805,6.029,0.032,-0.027,0.006,103.0,103.0,101.0,13.3,1505.2,329.4,-0.8,1.8,2470.532,13.28,0.041,130.2
2021-10-06T00:28:03,42.805,6.029,0.034,-0.027,-0.04,103.0,101.0,101.0,13.4,1505.2,329.0,-0.7,1.8,2470.514,13.28,0.043,128.5
2021-10-06T00:31:03,42.805,6.029,0.057,-0.035,-0.002,104.0,103.0,101.0,13.4,1505.2,327.1,-0.8,1.8,2470.531,13.28,0.066,121.6
2021-10-06T00:34:03,42.805,6.029,0.023,-0.01,-0.032,103.0,102.0,101.0,13.4,1505.2,326.9,-0.8,1.8,2470.505,13.28,0.025,113.5
2021-10-06T00:37:03,42.805,6.029,0.068,-0.041,-0.012,103.0,102.0,102.0,13.4,1505.2,329.1,-0.7,1.8,2470.536,13.28,0.079,121.1
2021-10-06T00:40:03,42.805,6.029,0.027,-0.041,-0.057,102.0,102.0,101.0,13.3,1505.2,330.1,-0.8,1.9,2470.526,13.28,0.049,146.6
2021-10-06T00:43:03,42.805,6.029,0.039,-0.019,-0.018,102.0,103.0,101.0,13.3,1505.2,325.2,-0.8,1.8,2470.537,13.28,0.043,116.0
2021-10-06T00:46:03,42.805,6.029,0.025,-0.034,-0.011,102.0,104.0,101.0,13.4,1505.2,329.6,-0.8,1.9,2470.54,13.28,0.042,143.7
2021-10-06T00:49:03,42.805,6.029,0.046,-0.021,-0.002,102.0,102.0,102.0,13.4,1505.2,328.9,-0.8,1.8,2470.495,13.28,0.05,114.5
2021-10-06T00:52:03,42.805,6.029,0.034,-0.034,-0.037,103.0,104.0,102.0,13.3,1505.2,330.7,-0.7,1.8,2470.495,13.28,0.048,135.0
2021-10-06T00:55:03,42.805,6.029,0.0,-0.018,-0.036,104.0,102.0,101.0,13.3,1505.2,331.8,-0.7,1.8,2470.522,13.28,0.018,180.0
2021-10-06T00:58:03,42.805,6.029,0.015,-0.028,-0.014,104.0,102.0,102.0,13.4,1505.2,331.7,-0.7,1.8,2470.508,13.28,0.031,151.8
2021-10-06T01:04:03,42.805,6.029,0.022,-0.031,0.013,106.0,105.0,103.0,13.4,1505.2,331.3,-0.8,1.8,2470.546,13.28,0.038,144.6
2021-10-06T01:07:03,42.805,6.029,0.028,-0.01,-0.003,104.0,105.0,102.0,13.3,1505.2,331.2,-0.8,1.8,2470.549,13.28,0.029,109.6
2021-10-06T01:10:03,42.805,6.029,0.029,-0.025,-0.013,102.0,103.0,102.0,13.4,1505.2,329.7,-0.8,1.8,2470.518,13.28,0.038,130.8
2021-10-06T01:13:03,42.805,6.029,0.034,-0.046,-0.027,103.0,102.0,101.0,13.4,1505.2,326.5,-0.8,1.9,2470.54,13.28,0.057,143.5
2021-10-06T01:16:03,42.805,6.029,0.033,-0.03,0.013,102.0,103.0,102.0,13.3,1505.2,331.5,-0.7,1.8,2470.557,13.28,0.044,132.3
2021-10-06T01:19:03,42.805,6.029,0.041,-0.016,-0.007,103.0,103.0,101.0,13.4,1505.2,330.2,-0.8,1.8,2470.532,13.28,0.044,111.3
2021-10-06T01:22:03,42.805,6.029,0.039,-0.016,-0.033,104.0,104.0,100.0,13.4,1505.2,327.8,-0.8,1.8,2470.564,13.28,0.042,112.3
2021-10-06T01:25:03,42.805,6.029,0.026,-0.016,0.019,103.0,103.0,101.0,13.4,1505.2,328.6,-0.7,1.8,2470.548,13.28,0.03,121.6
2021-10-06T01:28:03,42.805,6.029,0.025,-0.03,0.0,103.0,102.0,101.0,13.3,1505.2,329.5,-0.8,1.8,2470.551,13.28,0.039,140.2
2021-10-06T01:31:03,42.805,6.029,0.023,-0.033,-0.027,103.0,103.0,102.0,13.3,1505.2,329.3,-0.7,1.8,2470.537,13.28,0.04,145.1
2021-10-06T01:34:03,42.805,6.029,0.044,-0.022,-0.007,103.0,104.0,102.0,13.4,1505.2,328.4,-0.8,1.8,2470.495,13.28,0.049,116.6
2021-10-06T01:37:03,42.805,6.029,0.026,-0.029,0.0,103.0,103.0,101.0,13.3,1505.2,325.1,-0.8,1.8,2470.498,13.28,0.038,138.1
2021-10-06T01:40:03,42.805,6.029,0.013,-0.025,0.013,104.0,101.0,101.0,13.3,1505.2,329.9,-0.7,1.9,2470.471,13.28,0.028,152.5
2021-10-06T01:43:03,42.805,6.029,0.018,-0.038,-0.023,104.0,101.0,101.0,13.4,1505.2,327.2,-0.8,1.8,2470.51,13.28,0.042,154.7
2021-10-06T01:46:03,42.805,6.029,0.026,-0.028,-0.006,103.0,104.0,101.0,13.4,1505.2,327.8,-0.7,1.8,2470.499,13.28,0.038,137.1
2021-10-06T01:49:03,42.805,6.029,0.046,-0.053,-0.015,105.0,102.0,100.0,13.4,1505.2,326.6,-0.7,1.8,2470.492,13.28,0.07,139.0
2021-10-06T01:52:03,42.805,6.029,0.029,-0.045,0.007,104.0,102.0,101.0,13.3,1505.2,328.7,-0.8,1.8,2470.503,13.28,0.053,147.2
2021-10-06T01:55:03,42.805,6.029,0.037,-0.037,-0.015,104.0,102.0,101.0,13.3,1505.2,328.3,-0.8,1.8,2470.502,13.28,0.052,135.0
2021-10-06T01:58:03,42.805,6.029,0.06,-0.04,-0.008,103.0,103.0,101.0,13.4,1505.2,329.0,-0.8,1.8,2470.49,13.28,0.072,123.7
2021-10-06T02:04:03,42.805,6.029,0.021,-0.04,-0.021,103.0,104.0,101.0,13.4,1505.2,330.2,-0.7,1.8,2470.545,13.28,0.045,152.3
2021-10-06T02:07:03,42.805,6.029,0.043,-0.042,-0.019,104.0,103.0,101.0,13.4,1505.2,329.1,-0.8,1.8,2470.532,13.28,0.06,134.3
2021-10-06T02:10:03,42.805,6.029,0.03,-0.02,0.013,102.0,102.0,103.0,13.4,1505.2,329.5,-0.7,1.8,2470.554,13.28,0.036,123.7
2021-10-06T02:13:03,42.805,6.029,0.047,-0.04,-0.01,103.0,103.0,101.0,13.4,1505.2,328.5,-0.7,1.8,2470.537,13.28,0.061,130.4
2021-10-06T02:16:03,42.805,6.029,0.016,-0.044,-0.025,104.0,102.0,101.0,13.4,1505.2,327.8,-0.8,1.8,2470.5,13.28,0.046,160.0
2021-10-06T02:19:03,42.805,6.029,0.025,-0.035,0.002,102.0,103.0,101.0,13.4,1505.2,326.8,-0.8,1.8,2470.531,13.28,0.043,144.5
2021-10-06T02:22:03,42.805,6.029,0.017,-0.036,-0.05,104.0,102.0,101.0,13.4,1505.2,326.6,-0.7,1.8,2470.489,13.28,0.039,154.7
2021-10-06T02:25:03,42.805,6.029,0.024,-0.045,-0.016,104.0,103.0,101.0,13.3,1505.2,327.8,-0.8,1.8,2470.499,13.28,0.051,151.9
2021-10-06T02:28:03,42.805,6.029,0.023,-0.041,-0.016,105.0,103.0,101.0,13.4,1505.2,326.0,-0.8,1.8,2470.548,13.28,0.047,150.7
2021-10-06T02:31:02,42.805,6.029,0.006,-0.04,-0.03,104.0,102.0,101.0,13.4,1505.2,331.6,-0.8,1.8,2470.542,13.28,0.04,171.5
2021-10-06T02:34:02,42.805,6.029,0.042,-0.026,0.024,103.0,104.0,101.0,13.3,1505.2,329.2,-0.7,1.8,2470.529,13.28,0.049,121.8
2021-10-06T02:37:02,42.805,6.029,0.017,-0.023,0.005,102.0,102.0,102.0,13.3,1505.2,331.1,-0.8,1.8,2470.525,13.28,0.028,143.5
2021-10-06T02:40:03,42.805,6.029,0.014,-0.036,-0.014,103.0,103.0,101.0,13.3,1505.2,328.3,-0.8,1.8,2470.522,13.28,0.038,158.8
2021-10-06T02:43:03,42.805,6.029,0.009,-0.008,-0.014,105.0,103.0,101.0,13.4,1505.2,329.9,-0.7,1.8,2470.483,13.28,0.012,131.6
2021-10-06T02:46:03,42.805,6.029,0.038,-0.046,-0.01,103.0,102.0,101.0,13.4,1505.2,328.6,-0.8,1.8,2470.515,13.28,0.059,140.4
2021-10-06T02:49:03,42.805,6.029,0.024,-0.027,0.025,103.0,103.0,101.0,13.3,1505.2,329.4,-0.8,1.8,2470.525,13.28,0.036,138.4
2021-10-06T02:52:02,42.805,6.029,0.025,-0.027,-0.011,103.0,104.0,100.0,13.3,1505.2,326.0,-0.7,1.8,2470.531,13.28,0.036,137.2
2021-10-06T02:55:03,42.805,6.029,0.018,-0.038,-0.035,103.0,103.0,101.0,13.4,1505.2,329.1,-0.7,1.8,2470.504,13.28,0.042,154.7
2021-10-06T02:58:03,42.805,6.029,0.008,-0.021,-0.033,102.0,104.0,101.0,13.4,1505.2,328.0,-0.7,1.8,2470.534,13.28,0.022,159.1
2021-10-06T03:04:02,42.805,6.029,0.035,-0.03,-0.007,103.0,102.0,102.0,13.3,1505.2,331.1,-0.8,1.8,2470.562,13.28,0.046,130.6
2021-10-06T03:07:02,42.805,6.029,0.019,-0.029,-0.011,104.0,103.0,101.0,13.3,1505.2,326.3,-0.7,1.8,2470.557,13.28,0.034,146.8
2021-10-06T03:10:03,42.805,6.029,0.01,-0.029,-0.02,103.0,102.0,102.0,13.4,1505.2,327.6,-0.7,1.8,2470.571,13.28,0.03,161.0
2021-10-06T03:13:03,42.805,6.029,0.003,-0.005,-0.036,105.0,103.0,101.0,13.4,1505.2,331.0,-0.8,1.8,2470.567,13.28,0.005,149.0
2021-10-06T03:16:03,42.805,6.029,0.026,-0.022,-0.013,102.0,103.0,102.0,13.4,1505.2,329.9,-0.7,1.8,2470.546,13.28,0.034,130.2
2021-10-06T03:19:03,42.805,6.029,0.005,-0.034,0.017,104.0,104.0,101.0,13.4,1505.2,328.2,-0.7,1.8,2470.576,13.28,0.034,171.6
2021-10-06T03:22:02,42.805,6.029,0.024,-0.026,-0.005,104.0,101.0,101.0,13.4,1505.2,327.6,-0.7,1.8,2470.547,13.28,0.035,137.3
2021-10-06T03:25:02,42.805,6.029,0.028,-0.024,-0.016,103.0,103.0,101.0,13.3,1505.2,329.7,-0.8,1.8,2470.561,13.28,0.036,130.6
2021-10-06T03:28:04,42.805,6.029,0.016,-0.021,0.004,103.0,103.0,101.0,13.3,1505.2,328.7,-0.7,1.8,2470.545,13.28,0.026,142.7
2021-10-06T03:31:03,42.805,6.029,0.017,-0.014,-0.011,104.0,104.0,101.0,13.3,1505.2,329.2,-0.8,1.9,2470.582,13.28,0.022,129.5
2021-10-06T03:34:03,42.805,6.029,0.012,-0.031,-0.034,103.0,104.0,101.0,13.4,1505.2,329.4,-0.8,1.8,2470.534,13.28,0.033,158.8
2021-10-06T03:37:03,42.805,6.029,0.018,-0.02,-0.032,104.0,104.0,101.0,13.4,1505.2,330.2,-0.8,1.8,2470.577,13.28,0.026,138.0
2021-10-06T03:40:03,42.805,6.029,-0.006,-0.033,0.008,105.0,104.0,100.0,13.4,1505.2,331.0,-0.8,1.8,2470.588,13.28,0.033,190.3
2021-10-06T03:43:03,42.805,6.029,0.028,-0.015,-0.01,104.0,103.0,102.0,13.3,1505.2,325.2,-0.8,1.8,2470.537,13.28,0.031,118.2
2021-10-06T03:46:03,42.805,6.029,0.006,-0.012,0.002,104.0,104.0,102.0,13.4,1505.2,327.0,-0.8,1.9,2470.555,13.28,0.013,153.4
2021-10-06T03:49:03,42.805,6.029,0.026,-0.028,0.0,102.0,102.0,103.0,13.4,1505.2,329.3,-0.7,1.9,2470.562,13.28,0.038,137.1
2021-10-06T03:52:03,42.805,6.029,0.009,-0.004,-0.027,103.0,103.0,101.0,13.4,1505.2,328.8,-0.7,1.8,2470.58,13.28,0.009,114.0
2021-10-06T03:55:03,42.805,6.029,0.029,-0.023,-0.032,103.0,101.0,102.0,13.4,1505.2,327.5,-0.7,1.8,2470.579,13.28,0.037,128.4
2021-10-06T03:58:03,42.805,6.029,0.028,-0.037,-0.029,105.0,104.0,101.0,13.4,1505.2,327.7,-0.7,1.9,2470.582,13.28,0.046,142.9
2021-10-06T04:04:03,42.805,6.029,0.03,-0.022,-0.023,103.0,103.0,102.0,13.3,1505.2,329.7,-0.8,1.8,2470.622,13.28,0.037,126.3
2021-10-06T04:07:03,42.805,6.029,0.004,-0.02,0.004,102.0,104.0,103.0,13.4,1505.2,328.3,-0.8,1.8,2470.646,13.28,0.02,168.7
2021-10-06T04:10:03,42.805,6.029,0.006,-0.03,0.011,104.0,105.0,102.0,13.4,1505.2,329.5,-0.8,1.8,2470.653,13.28,0.03,168.7
2021-10-06T04:13:03,42.805,6.029,0.015,-0.034,-0.025,103.0,105.0,102.0,13.4,1505.2,329.9,-0.7,1.8,2470.601,13.28,0.037,156.2
2021-10-06T04:16:03,42.805,6.029,0.012,-0.027,-0.045,104.0,104.0,103.0,13.4,1505.2,329.1,-0.8,1.8,2470.617,13.28,0.029,156.0
2021-10-06T04:19:03,42.805,6.029,0.024,-0.033,-0.023,104.0,103.0,103.0,13.3,1505.2,327.4,-0.8,1.8,2470.628,13.28,0.04,144.0
2021-10-06T04:22:03,42.805,6.029,0.007,-0.014,-0.021,104.0,103.0,102.0,13.4,1505.2,331.2,-0.8,1.8,2470.621,13.28,0.015,153.4
2021-10-06T04:25:03,42.805,6.029,0.007,-0.045,-0.07,105.0,103.0,101.0,13.4,1505.2,328.0,-0.7,1.8,2470.625,13.28,0.045,171.2
2021-10-06T04:28:03,42.805,6.029,0.006,-0.037,-0.027,104.0,104.0,102.0,13.4,1505.2,330.3,-0.7,1.8,2470.623,13.28,0.037,170.8
2021-10-06T04:31:03,42.805,6.029,0.018,-0.024,-0.022,105.0,103.0,102.0,13.3,1505.2,326.6,-0.8,1.8,2470.649,13.28,0.03,143.1
2021-10-06T04:34:03,42.805,6.029,-0.003,-0.014,-0.014,104.0,103.0,102.0,13.4,1505.2,328.7,-0.8,1.8,2470.612,13.28,0.014,192.1
2021-10-06T04:37:03,42.805,6.029,-0.004,-0.043,-0.011,105.0,103.0,101.0,13.4,1505.2,330.8,-0.7,1.8,2470.586,13.28,0.043,185.3
2021-10-06T04:40:03,42.805,6.029,0.01,-0.038,-0.031,104.0,104.0,102.0,13.3,1505.2,328.9,-0.8,1.9,2470.623,13.28,0.039,165.3
2021-10-06T04:43:03,42.805,6.029,0.007,-0.033,-0.016,104.0,102.0,101.0,13.4,1505.2,325.2,-0.8,1.8,2470.634,13.28,0.033,168.0
2021-10-06T04:46:03,42.805,6.029,-0.009,-0.021,-0.04,104.0,103.0,103.0,13.4,1505.2,327.7,-0.8,1.9,2470.63,13.28,0.022,203.2
2021-10-06T04:49:03,42.805,6.029,0.01,-0.016,-0.06,105.0,105.0,102.0,13.3,1505.2,327.4,-0.8,1.8,2470.634,13.28,0.018,148.0
2021-10-06T04:52:03,42.805,6.029,0.017,-0.035,-0.036,103.0,104.0,102.0,13.4,1505.2,328.4,-0.8,1.8,2470.642,13.28,0.038,154.1
2021-10-06T04:55:03,42.805,6.029,0.007,-0.023,0.007,104.0,103.0,104.0,13.3,1505.2,328.6,-0.7,1.9,2470.663,13.28,0.024,163.1
2021-10-06T04:58:03,42.805,6.029,-0.004,-0.022,-0.016,104.0,103.0,102.0,13.4,1505.2,328.6,-0.8,1.8,2470.651,13.28,0.022,190.3
2021-10-06T05:04:03,42.805,6.029,0.006,-0.004,-0.013,103.0,104.0,102.0,13.4,1505.2,330.0,-0.8,1.8,2470.694,13.28,0.007,123.7
2021-10-06T05:07:03,42.805,6.029,-0.003,-0.003,-0.025,105.0,104.0,102.0,13.4,1505.2,328.7,-0.7,1.8,2470.707,13.28,0.004,225.0
2021-10-06T05:10:03,42.805,6.029,0.006,-0.027,-0.051,104.0,104.0,103.0,13.3,1505.2,326.8,-0.8,1.8,2470.669,13.28,0.027,167.5
2021-10-06T05:13:03,42.805,6.029,-0.013,-0.009,-0.024,105.0,104.0,101.0,13.4,1505.2,326.7,-0.8,1.8,2470.71,13.28,0.015,235.3
2021-10-06T05:16:03,42.805,6.029,0.0,-0.008,-0.02,105.0,104.0,102.0,13.4,1505.2,327.3,-0.8,1.8,2470.69,13.28,0.008,180.0
2021-10-06T05:19:03,42.805,6.029,-0.02,-0.008,-0.017,104.0,104.0,103.0,13.4,1505.2,329.3,-0.8,1.8,2470.644,13.28,0.021,248.2
2021-10-06T05:22:03,42.805,6.029,-0.004,-0.028,-0.005,105.0,103.0,102.0,13.3,1505.2,329.2,-0.7,1.8,2470.659,13.28,0.028,188.1
2021-10-06T05:25:03,42.805,6.029,-0.022,-0.022,-0.014,104.0,104.0,102.0,13.4,1505.2,328.8,-0.7,1.8,2470.667,13.28,0.031,225.0
2021-10-06T05:28:03,42.805,6.029,-0.01,-0.002,-0.003,105.0,104.0,102.0,13.3,1505.2,327.0,-0.8,1.8,2470.664,13.28,0.01,258.7
2021-10-06T05:31:03,42.805,6.029,-0.005,-0.013,-0.01,103.0,103.0,103.0,13.3,1505.2,328.4,-0.8,1.8,2470.683,13.28,0.013,201.0
2021-10-06T05:34:03,42.805,6.029,-0.003,-0.019,-0.01,104.0,106.0,101.0,13.4,1505.2,329.3,-0.8,1.8,2470.685,13.29,0.019,189.0
2021-10-06T05:37:03,42.805,6.029,-0.015,-0.011,0.007,104.0,104.0,101.0,13.4,1505.2,328.1,-0.7,1.8,2470.703,13.29,0.018,233.7
2021-10-06T05:40:03,42.805,6.029,-0.032,0.001,-0.056,103.0,104.0,101.0,13.4,1505.2,330.9,-0.8,1.8,2470.655,13.29,0.032,271.8
2021-10-06T05:43:03,42.805,6.029,-0.024,-0.003,-0.012,103.0,103.0,103.0,13.4,1505.2,326.9,-0.7,1.8,2470.687,13.29,0.024,262.9
2021-10-06T05:46:03,42.805,6.029,0.016,0.0,-0.004,102.0,103.0,103.0,13.3,1505.2,329.3,-0.7,1.8,2470.712,13.29,0.016,90.0
2021-10-06T05:49:03,42.805,6.029,-0.02,0.0,-0.03,105.0,102.0,102.0,13.3,1505.2,325.4,-0.8,1.8,2470.641,13.29,0.02,270.0
2021-10-06T05:52:03,42.805,6.029,-0.028,0.01,-0.033,101.0,103.0,102.0,13.4,1505.2,331.2,-0.8,1.8,2470.679,13.29,0.029,289.6
2021-10-06T05:55:03,42.805,6.029,-0.01,-0.002,-0.026,104.0,103.0,101.0,13.4,1505.2,329.0,-0.7,1.9,2470.677,13.28,0.01,258.7
2021-10-06T05:58:03,42.805,6.029,-0.022,-0.006,0.0,103.0,103.0,100.0,13.4,1505.2,328.8,-0.7,1.9,2470.7,13.28,0.022,254.7
2021-10-06T06:04:03,42.805,6.029,-0.023,-0.009,-0.008,102.0,102.0,101.0,13.3,1505.2,326.9,-0.8,1.8,2470.701,13.28,0.024,248.6
2021-10-06T06:07:03,42.805,6.029,-0.009,0.016,-0.007,102.0,103.0,100.0,13.4,1505.2,330.2,-0.8,1.8,2470.714,13.28,0.018,330.6
2021-10-06T06:10:03,42.805,6.029,-0.025,-0.005,-0.015,103.0,102.0,102.0,13.4,1505.2,328.1,-0.7,1.8,2470.761,13.28,0.025,258.7
2021-10-06T06:13:03,42.805,6.029,-0.036,0.016,-0.03,103.0,102.0,101.0,13.3,1505.2,328.8,-0.7,1.8,2470.722,13.28,0.039,294.0
2021-10-06T06:16:03,42.805,6.029,-0.018,0.009,0.006,102.0,102.0,101.0,13.3,1505.2,329.8,-0.8,1.8,2470.713,13.28,0.02,296.6
2021-10-06T06:19:03,42.805,6.029,-0.015,-0.031,-0.033,103.0,102.0,103.0,13.4,1505.2,328.1,-0.7,1.9,2470.72,13.28,0.034,205.8
2021-10-06T06:22:03,42.805,6.029,-0.025,0.012,-0.043,103.0,104.0,100.0,13.4,1505.2,328.7,-0.8,1.8,2470.695,13.28,0.027,295.6
2021-10-06T06:25:03,42.805,6.029,0.0,-0.019,-0.028,103.0,101.0,102.0,13.4,1505.2,329.6,-0.7,1.8,2470.703,13.28,0.019,180.0
2021-10-06T06:28:03,42.805,6.029,-0.015,-0.012,-0.015,103.0,105.0,102.0,13.4,1505.2,325.5,-0.7,1.8,2470.726,13.28,0.019,231.3
2021-10-06T06:31:03,42.805,6.029,-0.013,0.018,-0.015,103.0,103.0,102.0,13.4,1505.2,330.0,-0.8,1.9,2470.694,13.29,0.022,324.2
2021-10-06T06:34:03,42.805,6.029,0.0,0.001,-0.023,103.0,101.0,101.0,13.4,1505.2,330.1,-0.7,1.8,2470.705,13.29,0.001,0.0
2021-10-06T06:37:03,42.805,6.029,-0.016,-0.007,-0.025,103.0,101.0,101.0,13.4,1505.2,325.3,-0.7,1.8,2470.719,13.29,0.017,246.4
2021-10-06T06:40:03,42.805,6.029,-0.003,0.0,-0.015,102.0,101.0,102.0,13.3,1505.2,328.6,-0.8,1.8,2470.701,13.29,0.003,270.0
2021-10-06T06:43:03,42.805,6.029,-0.018,-0.004,-0.008,102.0,101.0,102.0,13.4,1505.2,327.0,-0.8,1.8,2470.714,13.29,0.018,257.5
2021-10-06T06:46:03,42.805,6.029,-0.034,-0.009,-0.04,103.0,103.0,101.0,13.4,1505.2,328.5,-0.8,1.8,2470.715,13.29,0.035,255.2
2021-10-06T06:49:03,42.805,6.029,-0.008,0.004,-0.021,103.0,101.0,101.0,13.3,1505.2,329.2,-0.7,1.8,2470.707,13.29,0.008,296.6
2021-10-06T06:52:03,42.805,6.029,-0.03,0.021,0.007,101.0,102.0,101.0,13.3,1505.2,330.6,-0.7,1.8,2470.716,13.29,0.036,305.0
2021-10-06T06:55:03,42.805,6.029,0.011,0.02,-0.008,102.0,102.0,101.0,13.4,1505.2,327.5,-0.7,1.8,2470.674,13.29,0.022,28.8
2021-10-06T06:58:03,42.805,6.029,-0.018,0.004,0.012,102.0,106.0,101.0,13.4,1505.2,326.6,-0.7,1.8,2470.689,13.29,0.018,282.5
2021-10-06T07:04:03,42.805,6.029,0.007,0.022,-0.022,102.0,102.0,101.0,13.4,1505.2,327.3,-0.7,1.8,2470.727,13.28,0.023,17.6
2021-10-06T07:07:03,42.805,6.029,-0.011,0.003,0.007,102.0,102.0,102.0,13.4,1505.2,331.3,-0.7,1.9,2470.735,13.29,0.011,285.3
2021-10-06T07:10:03,42.805,6.029,-0.02,0.006,-0.031,102.0,102.0,100.0,13.4,1505.2,328.2,-0.7,1.8,2470.727,13.29,0.02,286.7
2021-10-06T07:13:03,42.805,6.029,0.0,0.002,-0.005,104.0,100.0,101.0,13.4,1505.2,327.7,-0.8,1.8,2470.725,13.29,0.002,0.0
2021-10-06T07:16:03,42.805,6.029,-0.014,0.006,-0.014,103.0,101.0,102.0,13.3,1505.2,329.1,-0.7,1.8,2470.711,13.29,0.015,293.2
2021-10-06T07:19:03,42.805,6.029,-0.015,-0.02,-0.032,101.0,103.0,101.0,13.3,1505.2,332.1,-0.8,1.8,2470.721,13.29,0.025,216.9
2021-10-06T07:22:03,42.805,6.029,0.0,-0.017,-0.008,103.0,102.0,101.0,13.3,1505.2,330.1,-0.7,1.8,2470.749,13.29,0.017,180.0
2021-10-06T07:25:03,42.805,6.029,-0.037,0.0,-0.033,104.0,102.0,101.0,13.4,1505.2,327.2,-0.8,1.9,2470.726,13.29,0.037,270.0
2021-10-06T07:28:03,42.805,6.029,-0.029,0.011,-0.001,103.0,101.0,101.0,13.3,1505.2,328.0,-0.7,1.8,2470.685,13.29,0.031,290.8
2021-10-06T07:31:03,42.805,6.029,0.001,0.009,-0.018,103.0,101.0,101.0,13.4,1505.2,328.6,-0.7,1.8,2470.671,13.29,0.009,6.3
2021-10-06T07:34:03,42.805,6.029,-0.022,0.007,-0.003,103.0,102.0,101.0,13.3,1505.2,327.4,-0.8,1.8,2470.692,13.29,0.023,287.6
2021-10-06T07:37:03,42.805,6.029,0.012,-0.001,-0.032,102.0,103.0,100.0,13.3,1505.2,329.2,-0.8,1.8,2470.706,13.29,0.012,94.8
2021-10-06T07:40:03,42.805,6.029,-0.006,-0.005,0.012,101.0,102.0,101.0,13.3,1505.2,325.7,-0.7,1.9,2470.705,13.29,0.007,230.2
2021-10-06T07:43:03,42.805,6.029,-0.012,0.0,0.002,103.0,101.0,101.0,13.3,1505.2,328.2,-0.7,1.8,2470.715,13.29,0.012,270.0
2021-10-06T07:46:03,42.805,6.029,0.011,-0.013,-0.019,103.0,101.0,101.0,13.4,1505.2,327.5,-0.7,1.8,2470.72,13.29,0.017,139.8
2021-10-06T07:49:03,42.805,6.029,0.003,0.012,0.015,103.0,102.0,101.0,13.3,1505.2,325.4,-0.7,1.8,2470.688,13.29,0.012,14.0
2021-10-06T07:52:03,42.805,6.029,-0.004,0.011,0.027,101.0,102.0,100.0,13.4,1505.2,329.9,-0.8,1.8,2470.674,13.29,0.011,340.0
2021-10-06T07:55:03,42.805,6.029,-0.013,0.0,-0.043,103.0,101.0,102.0,13.4,1505.2,327.1,-0.7,1.8,2470.682,13.29,0.013,270.0
2021-10-06T07:58:03,42.805,6.029,-0.001,0.0,-0.008,102.0,102.0,101.0,13.4,1505.2,326.7,-0.8,1.8,2470.735,13.29,0.001,270.0
2021-10-06T08:04:03,42.805,6.029,-0.009,0.007,-0.022,102.0,101.0,101.0,13.4,1505.2,329.0,-0.7,1.8,2470.725,13.29,0.011,307.9
2021-10-06T08:07:03,42.805,6.029,0.008,-0.008,-0.011,101.0,102.0,101.0,13.3,1505.2,329.7,-0.7,1.8,2470.721,13.29,0.011,135.0
2021-10-06T08:10:03,42.805,6.029,0.001,-0.007,-0.017,103.0,104.0,100.0,13.4,1505.2,329.7,-0.8,1.8,2470.718,13.29,0.007,171.9
2021-10-06T08:13:03,42.805,6.029,0.008,0.019,0.021,103.0,103.0,100.0,13.4,1505.2,329.3,-0.7,1.8,2470.733,13.29,0.02,22.8
2021-10-06T08:16:03,42.805,6.029,0.004,0.002,-0.027,102.0,102.0,100.0,13.4,1505.2,328.7,-0.7,1.9,2470.664,13.29,0.004,63.4
2021-10-06T08:19:03,42.805,6.029,-0.015,0.011,-0.005,102.0,102.0,101.0,13.4,1505.2,326.6,-0.7,1.9,2470.674,13.29,0.018,306.3
2021-10-06T08:22:03,42.805,6.029,-0.012,0.017,-0.008,103.0,103.0,101.0,13.3,1505.2,330.7,-0.7,1.8,2470.71,13.29,0.02,324.8
2021-10-06T08:25:03,42.805,6.029,-0.014,0.01,-0.011,104.0,101.0,100.0,13.4,1505.2,327.0,-0.7,1.8,2470.649,13.29,0.017,305.5
2021-10-06T08:28:03,42.805,6.029,0.02,-0.012,-0.017,103.0,101.0,101.0,13.3,1505.2,329.3,-0.7,1.8,2470.719,13.29,0.023,121.0
2021-10-06T08:31:03,42.805,6.029,-0.014,-0.011,-0.005,104.0,101.0,101.0,13.4,1505.2,329.8,-0.7,1.9,2470.674,13.29,0.017,231.8
2021-10-06T08:34:03,42.805,6.029,-0.008,0.016,-0.029,103.0,103.0,101.0,13.4,1505.2,328.3,-0.7,1.8,2470.685,13.29,0.017,333.4
2021-10-06T08:37:03,42.805,6.029,-0.001,-0.009,-0.011,100.0,102.0,102.0,13.4,1505.2,325.8,-0.8,1.8,2470.654,13.29,0.009,186.3
2021-10-06T08:40:03,42.805,6.029,0.02,0.004,-0.032,102.0,101.0,101.0,13.3,1505.2,329.2,-0.8,1.8,2470.678,13.29,0.02,78.7
2021-10-06T08:43:03,42.805,6.029,0.016,-0.004,-0.057,103.0,101.0,101.0,13.4,1505.2,330.6,-0.7,1.8,2470.695,13.29,0.016,104.0
2021-10-06T08:46:03,42.805,6.029,0.018,0.0,-0.001,102.0,102.0,100.0,13.4,1505.2,331.2,-0.7,1.8,2470.651,13.29,0.018,90.0
2021-10-06T08:49:03,42.805,6.029,0.012,0.003,-0.016,101.0,102.0,101.0,13.3,1505.2,330.1,-0.7,1.8,2470.653,13.29,0.012,76.0
2021-10-06T08:52:03,42.805,6.029,0.02,0.008,-0.007,102.0,102.0,101.0,13.4,1505.2,331.3,-0.8,1.8,2470.681,13.28,0.021,68.2
2021-10-06T08:55:03,42.805,6.029,0.023,-0.005,0.0,103.0,102.0,101.0,13.3,1505.2,327.6,-0.7,1.8,2470.657,13.28,0.023,102.3
2021-10-06T08:58:03,42.805,6.029,0.011,-0.02,-0.05,104.0,102.0,101.0,13.4,1505.2,330.2,-0.8,1.8,2470.667,13.28,0.022,151.2
2021-10-06T09:04:03,42.805,6.029,0.019,-0.012,-0.02,102.0,102.0,102.0,13.4,1505.2,327.1,-0.7,1.8,2470.698,13.28,0.022,122.3
2021-10-06T09:07:03,42.805,6.029,0.008,-0.012,-0.002,103.0,102.0,100.0,13.4,1505.2,329.7,-0.7,1.8,2470.642,13.28,0.014,146.3
2021-10-06T09:10:03,42.805,6.029,0.013,0.01,-0.011,102.0,103.0,101.0,13.4,1505.2,325.9,-0.7,1.8,2470.697,13.28,0.016,52.4
2021-10-06T09:13:03,42.805,6.029,0.033,0.011,0.011,104.0,103.0,99.0,13.4,1505.2,329.7,-0.7,1.8,2470.666,13.28,0.034,71.6
2021-10-06T09:16:03,42.805,6.029,0.01,0.006,0.008,102.0,102.0,101.0,13.4,1505.2,327.9,-0.7,1.8,2470.673,13.28,0.011,59.0
2021-10-06T09:19:03,42.805,6.029,0.01,-0.002,-0.009,103.0,102.0,102.0,13.4,1505.2,328.4,-0.8,1.8,2470.663,13.28,0.01,101.3
2021-10-06T09:22:03,42.805,6.029,0.013,-0.003,-0.045,102.0,103.0,101.0,13.4,1505.2,327.2,-0.8,1.8,2470.636,13.28,0.013,103.0
2021-10-06T09:25:03,42.805,6.029,0.005,-0.011,-0.004,103.0,102.0,100.0,13.4,1505.2,328.2,-0.7,1.8,2470.673,13.28,0.012,155.6
2021-10-06T09:28:03,42.805,6.029,0.0,0.014,0.001,102.0,102.0,101.0,13.4,1505.2,329.4,-0.8,1.8,2470.626,13.28,0.014,0.0
2021-10-06T09:31:03,42.805,6.029,0.011,-0.01,-0.059,103.0,102.0,101.0,13.4,1505.2,331.4,-0.8,1.8,2470.643,13.28,0.014,132.3
2021-10-06T09:34:03,42.805,6.029,0.026,0.002,-0.026,102.0,103.0,101.0,13.4,1505.2,327.0,-0.8,1.8,2470.649,13.28,0.026,85.6
2021-10-06T09:37:03,42.805,6.029,0.015,-0.004,0.0,102.0,101.0,102.0,13.3,1505.2,327.2,-0.7,1.8,2470.61,13.28,0.015,104.9
2021-10-06T09:40:03,42.805,6.029,0.002,0.014,0.0,102.0,103.0,100.0,13.3,1505.2,329.2,-0.7,1.8,2470.631,13.28,0.014,8.1
2021-10-06T09:43:03,42.805,6.029,0.019,-0.001,-0.01,102.0,103.0,101.0,13.4,1505.2,325.5,-0.8,1.8,2470.635,13.28,0.019,93.0
2021-10-06T09:46:03,42.805,6.029,0.035,-0.019,-0.007,102.0,103.0,100.0,13.4,1505.2,327.2,-0.7,1.8,2470.668,13.28,0.039,118.5
2021-10-06T09:49:03,42.805,6.029,0.017,-0.012,-0.022,102.0,102.0,100.0,13.3,1505.2,329.8,-0.8,1.8,2470.622,13.28,0.02,125.2
2021-10-06T09:52:03,42.805,6.029,0.024,-0.007,-0.012,102.0,101.0,102.0,13.4,1505.2,325.8,-0.7,1.8,2470.641,13.28,0.025,106.3
2021-10-06T09:55:03,42.805,6.029,0.004,-0.015,-0.002,103.0,103.0,100.0,13.4,1505.2,327.6,-0.7,1.8,2470.622,13.28,0.015,165.1